Time,TemperatureF,DewpointF,PressureIn,WindDirection,WindDirectionDegrees,WindSpeedMPH,WindSpeedGustMPH,Humidity,HourlyPrecipIn,Conditions,Clouds,dailyrainin,SolarRadiationWatts/m^2,SoftwareType,DateUTC
2013-04-12 00:00:00,28.1,18.0,29.68,South,191,1.0,3.0,67,0.00,,,0.00,0,weatherlink.com 1.10,2013-04-12 06:00:00,
2013-04-12 00:15:00,27.7,18.0,29.68,SSW,192,0.0,2.0,68,0.00,,,0.00,0,weatherlink.com 1.10,2013-04-12 06:15:00,
2013-04-12 00:30:00,28.2,19.0,29.68,South,190,0.0,2.0,69,0.00,,,0.00,0,weatherlink.com 1.10,2013-04-12 06:30:00,
2013-04-12 00:45:00,28.3,19.0,29.68,South,190,0.0,2.0,69,0.00,,,0.00,0,weatherlink.com 1.10,2013-04-12 06:45:00,
2013-04-12 01:00:00,27.7,19.0,29.68,South,190,0.0,4.0,69,0.00,,,0.00,0,weatherlink.com 1.10,2013-04-12 07:00:00,
2013-04-12 01:15:00,27.6,18.0,29.67,SW,228,1.0,4.0,68,0.00,,,0.00,0,weatherlink.com 1.10,2013-04-12 07:15:00,
2013-04-12 01:30:00,28.0,18.0,29.67,West,272,0.0,1.0,66,0.00,,,0.00,0,weatherlink.com 1.10,2013-04-12 07:30:00,
2013-04-12 01:45:00,27.8,18.0,29.67,West,272,0.0,2.0,67,0.00,,,0.00,0,weatherlink.com 1.10,2013-04-12 07:45:00,
2013-04-12 02:00:00,27.5,18.0,29.67,West,263,0.0,2.0,68,0.00,,,0.00,0,weatherlink.com 1.10,2013-04-12 08:00:00,
2013-04-12 02:15:00,26.8,18.0,29.66,West,262,0.0,1.0,70,0.00,,,0.00,0,weatherlink.com 1.10,2013-04-12 08:15:00,
2013-04-12 02:30:00,26.8,19.0,29.66,West,262,0.0,1.0,71,0.00,,,0.00,0,weatherlink.com 1.10,2013-04-12 08:30:00,
2013-04-12 02:45:00,26.6,18.0,29.65,West,262,0.0,1.0,71,0.00,,,0.00,0,weatherlink.com 1.10,2013-04-12 08:45:00,
2013-04-12 03:00:00,26.5,18.0,29.65,West,270,0.0,3.0,70,0.00,,,0.00,0,weatherlink.com 1.10,2013-04-12 09:00:00,
2013-04-12 03:15:00,26.3,18.0,29.64,West,270,0.0,2.0,71,0.00,,,0.00,0,weatherlink.com 1.10,2013-04-12 09:15:00,
2013-04-12 03:30:00,25.9,18.0,29.63,WSW,256,1.0,2.0,71,0.00,,,0.00,0,weatherlink.com 1.10,2013-04-12 09:30:00,
2013-04-12 03:45:00,25.2,18.0,29.63,South,186,1.0,5.0,73,0.00,,,0.00,0,weatherlink.com 1.10,2013-04-12 09:45:00,
2013-04-12 04:00:00,24.1,17.0,29.63,South,175,1.0,4.0,74,0.00,,,0.00,0,weatherlink.com 1.10,2013-04-12 10:00:00,
2013-04-12 04:15:00,23.4,18.0,29.62,South,187,1.0,6.0,78,0.00,,,0.00,0,weatherlink.com 1.10,2013-04-12 10:15:00,
2013-04-12 04:30:00,23.8,18.0,29.62,WSW,254,2.0,5.0,77,0.00,,,0.00,0,weatherlink.com 1.10,2013-04-12 10:30:00,
2013-04-12 04:45:00,24.3,18.0,29.62,West,276,0.0,5.0,76,0.00,,,0.00,0,weatherlink.com 1.10,2013-04-12 10:45:00,
2013-04-12 05:00:00,24.6,18.0,29.61,WSW,252,0.0,4.0,76,0.00,,,0.00,0,weatherlink.com 1.10,2013-04-12 11:00:00,
2013-04-12 05:15:00,24.8,18.0,29.60,SSW,211,3.0,5.0,76,0.00,,,0.00,0,weatherlink.com 1.10,2013-04-12 11:15:00,
2013-04-12 05:30:00,24.2,18.0,29.60,SSW,193,1.0,6.0,77,0.00,,,0.00,0,weatherlink.com 1.10,2013-04-12 11:30:00,
2013-04-12 05:45:00,23.9,18.0,29.60,SSW,194,0.0,5.0,77,0.00,,,0.00,0,weatherlink.com 1.10,2013-04-12 11:45:00,
2013-04-12 06:00:00,24.0,17.0,29.60,WSW,246,5.0,6.0,75,0.00,,,0.00,0,weatherlink.com 1.10,2013-04-12 12:00:00,
2013-04-12 06:15:00,24.1,17.0,29.60,SW,227,0.0,9.0,75,0.00,,,0.00,0,weatherlink.com 1.10,2013-04-12 12:15:00,
2013-04-12 06:30:00,24.1,18.0,29.61,WSW,246,1.0,6.0,76,0.00,,,0.00,0,weatherlink.com 1.10,2013-04-12 12:30:00,
2013-04-12 06:45:00,23.8,18.0,29.61,SE,142,0.0,7.0,77,0.00,,,0.00,11,weatherlink.com 1.10,2013-04-12 12:45:00,
2013-04-12 07:01:00,23.9,18.0,29.61,SSW,206,1.0,8.0,77,0.00,,,0.00,37,weatherlink.com 1.10,2013-04-12 13:01:00,
2013-04-12 07:16:00,25.2,17.0,29.61,WSW,255,1.0,12.0,72,0.00,,,0.00,107,weatherlink.com 1.10,2013-04-12 13:16:00,
2013-04-12 07:31:00,26.6,18.0,29.61,WSW,252,2.0,8.0,69,0.00,,,0.00,155,weatherlink.com 1.10,2013-04-12 13:31:00,
2013-04-12 07:46:00,27.7,18.0,29.61,WNW,286,3.0,8.0,67,0.00,,,0.00,221,weatherlink.com 1.10,2013-04-12 13:46:00,
2013-04-12 08:31:00,29.6,19.0,29.61,West,267,0.0,9.0,65,0.00,,,0.00,338,weatherlink.com 1.10,2013-04-12 14:31:00,
2013-04-12 09:01:00,31.7,20.0,29.62,WSW,257,3.0,11.0,61,0.00,,,0.00,450,weatherlink.com 1.10,2013-04-12 15:01:00,
2013-04-12 09:16:00,33.1,18.0,29.62,WNW,295,6.0,12.0,54,0.00,,,0.00,504,weatherlink.com 1.10,2013-04-12 15:16:00,
2013-04-12 09:31:00,33.8,18.0,29.62,West,261,7.0,13.0,53,0.00,,,0.00,554,weatherlink.com 1.10,2013-04-12 15:31:00,
2013-04-12 09:46:00,33.8,17.0,29.62,NW,304,3.0,14.0,51,0.00,,,0.00,141,weatherlink.com 1.10,2013-04-12 15:46:00,
2013-04-12 10:01:00,34.1,17.0,29.62,WNW,286,4.0,15.0,50,0.00,,,0.00,714,weatherlink.com 1.10,2013-04-12 16:01:00,
2013-04-12 10:16:00,35.1,19.0,29.62,West,263,6.0,12.0,52,0.00,,,0.00,719,weatherlink.com 1.10,2013-04-12 16:16:00,
2013-04-12 10:31:00,36.9,17.0,29.63,WNW,295,3.0,16.0,45,0.00,,,0.00,738,weatherlink.com 1.10,2013-04-12 16:31:00,
2013-04-12 10:46:00,37.7,17.0,29.62,NW,309,4.0,15.0,44,0.00,,,0.00,795,weatherlink.com 1.10,2013-04-12 16:46:00,
2013-04-12 11:02:00,38.6,18.0,29.63,NNW,338,7.0,12.0,43,0.00,,,0.00,872,weatherlink.com 1.10,2013-04-12 17:02:00,
2013-04-12 11:17:00,38.9,18.0,29.63,NW,313,5.0,10.0,43,0.00,,,0.00,916,weatherlink.com 1.10,2013-04-12 17:17:00,
2013-04-12 11:32:00,39.9,16.0,29.63,NW,313,2.0,10.0,38,0.00,,,0.00,415,weatherlink.com 1.10,2013-04-12 17:32:00,
2013-04-12 11:47:00,39.2,18.0,29.63,WNW,291,3.0,16.0,42,0.00,,,0.00,719,weatherlink.com 1.10,2013-04-12 17:47:00,
2013-04-12 13:32:00,39.6,17.0,29.64,WNW,302,4.0,8.0,40,0.00,,,0.00,216,weatherlink.com 1.10,2013-04-12 19:32:00,
2013-04-12 13:47:00,38.9,14.0,29.64,NW,309,5.0,13.0,36,0.00,,,0.00,197,weatherlink.com 1.10,2013-04-12 19:47:00,
2013-04-12 14:02:00,38.2,13.0,29.64,WNW,303,6.0,11.0,36,0.00,,,0.00,269,weatherlink.com 1.10,2013-04-12 20:02:00,
2013-04-12 14:17:00,37.1,16.0,29.65,NW,311,5.0,16.0,42,0.00,,,0.00,185,weatherlink.com 1.10,2013-04-12 20:17:00,
2013-04-12 14:32:00,36.8,14.0,29.65,WNW,302,5.0,14.0,40,0.00,,,0.00,237,weatherlink.com 1.10,2013-04-12 20:32:00,
2013-04-12 14:47:00,40.2,19.0,29.65,NW,320,5.0,11.0,42,0.00,,,0.00,1069,weatherlink.com 1.10,2013-04-12 20:47:00,
2013-04-12 15:02:00,40.9,14.0,29.65,NNW,341,2.0,9.0,33,0.00,,,0.00,988,weatherlink.com 1.10,2013-04-12 21:02:00,
2013-04-12 15:17:00,44.2,15.0,29.65,NW,311,5.0,8.0,31,0.00,,,0.00,916,weatherlink.com 1.10,2013-04-12 21:17:00,
2013-04-12 15:32:00,44.6,20.0,29.65,NW,311,7.0,9.0,38,0.00,,,0.00,830,weatherlink.com 1.10,2013-04-12 21:32:00,
2013-04-12 15:47:00,44.3,16.0,29.65,NW,308,4.0,13.0,32,0.00,,,0.00,796,weatherlink.com 1.10,2013-04-12 21:47:00,
2013-04-12 16:02:00,44.1,14.0,29.65,NW,318,5.0,9.0,29,0.00,,,0.00,617,weatherlink.com 1.10,2013-04-12 22:02:00,
2013-04-12 16:17:00,39.9,11.0,29.65,NW,322,3.0,8.0,30,0.00,,,0.00,148,weatherlink.com 1.10,2013-04-12 22:17:00,
2013-04-12 16:32:00,38.2,10.0,29.65,WNW,298,3.0,14.0,31,0.00,,,0.00,237,weatherlink.com 1.10,2013-04-12 22:32:00,
2013-04-12 16:47:00,40.4,10.0,29.65,NW,320,3.0,10.0,28,0.00,,,0.00,329,weatherlink.com 1.10,2013-04-12 22:47:00,
2013-04-12 17:02:00,40.8,8.0,29.65,NNW,342,2.0,9.0,26,0.00,,,0.00,69,weatherlink.com 1.10,2013-04-12 23:02:00,
2013-04-12 17:17:00,38.5,9.0,29.65,North,355,5.0,13.0,29,0.00,,,0.00,74,weatherlink.com 1.10,2013-04-12 23:17:00,
2013-04-12 17:32:00,37.6,9.0,29.66,NW,311,1.0,5.0,31,0.00,,,0.00,113,weatherlink.com 1.10,2013-04-12 23:32:00,
2013-04-12 17:47:00,39.1,11.0,29.66,NW,314,4.0,8.0,32,0.00,,,0.00,320,weatherlink.com 1.10,2013-04-12 23:47:00,
2013-04-12 18:02:00,40.5,14.0,29.66,NW,319,4.0,10.0,34,0.00,,,0.00,330,weatherlink.com 1.10,2013-04-13 00:02:00,
2013-04-12 18:17:00,39.2,14.0,29.67,NW,321,3.0,8.0,35,0.00,,,0.00,253,weatherlink.com 1.10,2013-04-13 00:17:00,
2013-04-12 18:32:00,38.1,14.0,29.67,NW,320,2.0,6.0,37,0.00,,,0.00,135,weatherlink.com 1.10,2013-04-13 00:32:00,
2013-04-12 18:47:00,36.9,14.0,29.67,NNW,348,2.0,10.0,39,0.00,,,0.00,33,weatherlink.com 1.10,2013-04-13 00:47:00,
2013-04-12 19:02:00,36.1,14.0,29.67,NW,315,3.0,7.0,40,0.00,,,0.00,19,weatherlink.com 1.10,2013-04-13 01:02:00,
2013-04-12 19:17:00,35.5,13.0,29.68,NNW,338,0.0,5.0,39,0.00,,,0.00,14,weatherlink.com 1.10,2013-04-13 01:17:00,
2013-04-12 19:32:00,34.6,11.0,29.68,NNW,334,0.0,6.0,38,0.00,,,0.00,5,weatherlink.com 1.10,2013-04-13 01:32:00,
2013-04-12 19:47:00,33.6,11.0,29.69,NW,311,0.0,3.0,39,0.00,,,0.00,0,weatherlink.com 1.10,2013-04-13 01:47:00,
2013-04-12 20:02:00,32.4,10.0,29.70,NNW,334,0.0,2.0,39,0.00,,,0.00,0,weatherlink.com 1.10,2013-04-13 02:02:00,
2013-04-12 20:17:00,32.2,10.0,29.70,NNW,334,0.0,3.0,39,0.00,,,0.00,0,weatherlink.com 1.10,2013-04-13 02:17:00,
2013-04-12 20:32:00,32.1,10.0,29.71,North,360,0.0,3.0,39,0.00,,,0.00,0,weatherlink.com 1.10,2013-04-13 02:32:00,
2013-04-12 20:47:00,31.7,10.0,29.71,NE,38,0.0,0.0,40,0.00,,,0.00,0,weatherlink.com 1.10,2013-04-13 02:47:00,
2013-04-12 21:02:00,31.4,10.0,29.71,NE,38,0.0,1.0,41,0.00,,,0.00,0,weatherlink.com 1.10,2013-04-13 03:02:00,
2013-04-12 21:17:00,29.2,10.0,29.72,East,100,2.0,3.0,44,0.00,,,0.00,0,weatherlink.com 1.10,2013-04-13 03:17:00,
2013-04-12 21:32:00,28.0,11.0,29.73,ESE,119,2.0,5.0,50,0.00,,,0.00,0,weatherlink.com 1.10,2013-04-13 03:32:00,
2013-04-12 21:47:00,28.0,14.0,29.73,ESE,118,4.0,7.0,55,0.00,,,0.00,0,weatherlink.com 1.10,2013-04-13 03:47:00,
2013-04-12 22:02:00,27.7,14.0,29.73,ESE,115,2.0,4.0,57,0.00,,,0.00,0,weatherlink.com 1.10,2013-04-13 04:02:00,
2013-04-12 22:17:00,27.5,17.0,29.73,SSE,147,2.0,4.0,64,0.00,,,0.00,0,weatherlink.com 1.10,2013-04-13 04:17:00,
2013-04-12 22:32:00,28.4,14.0,29.72,SSE,153,1.0,6.0,54,0.00,,,0.00,0,weatherlink.com 1.10,2013-04-13 04:32:00,
2013-04-12 22:47:00,29.4,12.0,29.72,SSE,148,2.0,5.0,48,0.00,,,0.00,0,weatherlink.com 1.10,2013-04-13 04:47:00,
2013-04-12 23:02:00,26.9,16.0,29.71,ESE,114,5.0,9.0,64,0.00,,,0.00,0,weatherlink.com 1.10,2013-04-13 05:02:00,
2013-04-12 23:17:00,26.5,18.0,29.71,ESE,113,4.0,8.0,70,0.00,,,0.00,0,weatherlink.com 1.10,2013-04-13 05:17:00,
2013-04-12 23:32:00,26.3,20.0,29.71,East,97,7.0,10.0,76,0.00,,,0.00,0,weatherlink.com 1.10,2013-04-13 05:32:00,
2013-04-12 23:48:00,26.2,21.0,29.71,ESE,111,5.0,10.0,80,0.00,,,0.00,0,weatherlink.com 1.10,2013-04-13 05:48:00,